ON7HN-2 Weather Reports


time (UTC)temp
C
wind
direction
speed
KPH
gust
KPH
rain 1hr
cm
rain 24hr
cm
rain mn
cm
humidity
%
barometer
mb
20260510064005 12 47 11.3 16.1 0.00 0.00 0.00 77 1014.0
20260510063505 12 351 12.9 17.7 0.00 0.00 0.00 78 1013.9
20260510063005 12 358 17.7 19.3 0.00 0.00 0.00 79 1014.1
20260510062505 12 5 11.3 12.9 0.00 0.00 0.00 80 1013.9
20260510062010 12 4 14.5 20.9 0.00 0.00 0.00 80 1014.0
20260510061505 11 42 9.7 14.5 0.00 0.00 0.00 80 1013.9
20260510061005 11 30 8.0 12.9 0.00 0.00 0.00 81 1013.8
20260510060505 11 0 6.4 9.7 0.00 0.00 0.00 82 1014.0
20260510060006 11 70 6.4 9.7 0.00 0.00 0.00 83 1014.1
20260510055505 11 15 8.0 9.7 0.00 0.00 0.00 83 1013.9
20260510055005 11 353 8.0 9.7 0.00 0.00 0.00 83 1014.0
20260510054505 11 21 12.9 14.5 0.00 0.00 0.00 84 1013.9
20260510054005 10 317 9.7 12.9 0.00 0.00 0.00 84 1013.9
20260510053505 10 340 11.3 12.9 0.00 0.00 0.00 84 1014.0
20260510053005 10 30 9.7 9.7 0.00 0.00 0.00 85 1014.0
20260510052505 10 342 9.7 12.9 0.00 0.00 0.00 85 1014.1
20260510052005 10 12 4.8 6.4 0.00 0.00 0.00 85 1014.0
20260510051505 10 8 6.4 8.0 0.00 0.00 0.00 86 1014.2
20260510051005 10 19 4.8 8.0 0.00 0.00 0.00 86 1014.3
20260510050506 10 20 6.4 8.0 0.00 0.00 0.00 87 1013.9
20260510050006 10 39 6.4 8.0 0.00 0.00 0.00 87 1013.9
20260510045505 10 359 6.4 8.0 0.00 0.00 0.00 88 1013.7
20260510045006 10 12 8.0 9.7 0.00 0.00 0.00 88 1013.7
20260510044506 10 347 8.0 9.7 0.00 0.00 0.00 88 1014.1
20260510044006 10 19 4.8 6.4 0.00 0.00 0.00 88 1013.7
20260510043505 10 355 9.7 12.9 0.00 0.00 0.00 89 1013.9
20260510043005 10 2 4.8 6.4 0.00 0.00 0.00 89 1013.7
20260510042505 10 3 8.0 9.7 0.00 0.00 0.00 89 1013.8
20260510042005 10 24 4.8 6.4 0.00 0.00 0.00 89 1014.1
20260510041505 10 10 4.8 6.4 0.00 0.00 0.00 89 1013.8
20260510041005 10 13 3.2 4.8 0.00 0.00 0.00 89 1013.9
20260510040505 10 351 6.4 8.0 0.00 0.00 0.00 89 1014.0
20260510040005 10 20 8.0 9.7 0.00 0.00 0.00 89 1013.5
20260510035505 10 62 6.4 9.7 0.00 0.00 0.00 89 1013.8
20260510035005 10 14 6.4 6.4 0.00 0.00 0.00 88 1013.7
20260510034505 10 5 9.7 12.9 0.00 0.00 0.00 88 1013.5
20260510034010 10 338 6.4 8.0 0.00 0.00 0.00 88 1013.8
20260510033506 10 349 3.2 6.4 0.00 0.00 0.00 87 1013.9
20260510033006 10 354 4.8 6.4 0.00 0.00 0.00 87 1013.8
20260510032505 10 40 4.8 4.8 0.00 0.00 0.00 87 1013.8
20260510032005 10 351 6.4 6.4 0.00 0.00 0.00 86 1013.9
20260510031505 10 4 8.0 8.0 0.00 0.00 0.00 86 1014.2
20260510031005 10 13 4.8 8.0 0.00 0.00 0.00 86 1014.0
20260510030505 10 22 4.8 6.4 0.00 0.00 0.00 86 1014.0
20260510030005 10 22 6.4 6.4 0.00 0.00 0.00 86 1013.9
20260510025505 11 17 6.4 6.4 0.00 0.00 0.00 85 1013.9
20260510025005 10 6 8.0 9.7 0.00 0.00 0.00 86 1014.0
20260510024505 10 10 6.4 6.4 0.00 0.00 0.00 85 1014.0
20260510024005 11 345 4.8 6.4 0.00 0.00 0.00 85 1013.9
20260510023506 11 0 6.4 6.4 0.00 0.00 0.00 84 1014.1
20260510023005 11 6 4.8 6.4 0.00 0.00 0.00 84 1014.0
20260510022510 11 48 6.4 8.0 0.00 0.00 0.00 84 1013.9
20260510022006 11 30 8.0 9.7 0.00 0.00 0.00 84 1013.9
20260510021506 11 12 8.0 8.0 0.00 0.00 0.00 84 1014.1
20260510021005 11 8 8.0 8.0 0.00 0.00 0.00 84 1013.9
20260510020505 10 23 6.4 8.0 0.00 0.00 0.00 84 1014.1
20260510020005 11 28 4.8 6.4 0.00 0.00 0.00 83 1014.0
20260510015505 11 4 6.4 6.4 0.00 0.00 0.00 83 1014.1
20260510015005 11 9 4.8 6.4 0.00 0.00 0.00 83 1014.2
20260510014510 11 35 4.8 6.4 0.00 0.00 0.00 83 1014.3
20260510014006 11 15 4.8 6.4 0.00 0.00 0.00 82 1014.3
20260510013511 11 358 4.8 6.4 0.00 0.00 0.00 82 1014.5
20260510013011 11 27 3.2 4.8 0.00 0.00 0.00 82 1014.5
20260510012505 11 9 3.2 3.2 0.00 0.00 0.00 82 1014.4
20260510012006 11 19 4.8 4.8 0.00 0.00 0.00 82 1014.2
20260510011505 11 12 4.8 6.4 0.00 0.00 0.00 81 1014.3
20260510011005 11 12 3.2 4.8 0.00 0.00 0.00 81 1014.3
20260510010505 11 26 1.6 4.8 0.00 0.00 0.00 81 1014.5
20260510010010 11 10 4.8 6.4 0.00 0.00 0.00 80 1014.6
20260510005510 11 17 8.0 8.0 0.00 0.00 0.00 80 1014.5
20260510005006 11 15 3.2 6.4 0.00 0.00 0.00 80 1014.3
20260510004511 11 356 4.8 6.4 0.00 0.00 0.00 79 1014.6
20260510004005 11 352 11.3 12.9 0.00 0.00 0.00 79 1014.6
20260510003505 11 24 4.8 8.0 0.00 0.00 0.00 79 1014.6
20260510003005 11 18 9.7 12.9 0.00 0.00 0.00 78 1014.5
20260510002505 11 10 8.0 9.7 0.00 0.00 0.00 78 1014.5
20260510002006 11 9 6.4 8.0 0.00 0.00 0.00 78 1014.8
20260510001506 11 3 8.0 8.0 0.00 0.00 0.00 77 1014.7
20260510001005 11 14 6.4 6.4 0.00 0.00 0.00 77 1014.9
20260510000506 11 9 6.4 8.0 0.00 0.00 0.00 76 1014.9
20260510000005 11 43 8.0 8.0 0.00 0.00 0.00 76 1015.0
20260509235505 11 5 6.4 6.4 0.00 0.00 0.00 76 1015.0
20260509235006 11 11 6.4 9.7 0.00 0.00 0.00 76 1014.9
20260509234511 11 17 6.4 8.0 0.00 0.00 0.00 75 1014.9
20260509234005 11 7 9.7 9.7 0.00 0.00 0.00 75 1015.1
20260509233505 11 8 9.7 9.7 0.00 0.00 0.00 74 1014.9
20260509233005 11 8 6.4 8.0 0.00 0.00 0.00 74 1014.8
20260509232505 11 8 6.4 8.0 0.00 0.00 0.00 74 1014.9
20260509232005 12 25 6.4 6.4 0.00 0.00 0.00 73 1015.3
20260509231506 12 45 6.4 6.4 0.00 0.00 0.00 73 1015.0
20260509231005 12 11 6.4 8.0 0.00 0.00 0.00 72 1015.0
20260509230510 12 5 6.4 8.0 0.00 0.00 0.00 72 1015.3
20260509230010 12 5 8.0 9.7 0.00 0.00 0.00 71 1015.1
20260509225506 12 346 4.8 8.0 0.00 0.00 0.00 70 1015.3
20260509225006 12 13 6.4 6.4 0.00 0.00 0.00 70 1015.2
20260509224505 12 29 8.0 9.7 0.00 0.00 0.00 69 1015.1
20260509224005 12 0 6.4 8.0 0.00 0.00 0.00 68 1015.1
20260509223505 12 30 6.4 8.0 0.00 0.00 0.00 68 1015.3
20260509223006 12 33 3.2 4.8 0.00 0.00 0.00 66 1015.1
20260509222505 12 26 6.4 9.7 0.00 0.00 0.00 66 1015.1
20260509222010 12 8 9.7 12.9 0.00 0.00 0.00 66 1015.1
20260509221505 12 45 8.0 9.7 0.00 0.00 0.00 65 1015.0
20260509221005 12 354 8.0 9.7 0.00 0.00 0.00 64 1015.1
20260509220505 12 17 8.0 8.0 0.00 0.00 0.00 64 1015.1
20260509220006 12 15 4.8 6.4 0.00 0.00 0.00 64 1015.2
20260509215505 12 13 8.0 8.0 0.00 0.00 0.00 64 1015.1
20260509215010 12 31 8.0 8.0 0.00 0.00 0.00 64 1015.0
20260509214506 13 7 11.3 14.5 0.00 0.00 0.00 64 1015.0
20260509214006 13 3 8.0 9.7 0.00 0.00 0.00 65 1014.9
20260509213505 13 34 6.4 8.0 0.00 0.00 0.00 65 1014.9
20260509213006 13 355 9.7 12.9 0.00 0.00 0.00 65 1015.3
20260509212506 13 21 8.0 9.7 0.00 0.00 0.00 66 1015.0
20260509212005 13 356 8.0 8.0 0.00 0.00 0.00 66 1015.0
20260509211505 13 21 8.0 9.7 0.00 0.00 0.00 66 1015.0
20260509211010 13 347 6.4 9.7 0.00 0.00 0.00 66 1014.7
20260509210505 13 357 9.7 12.9 0.00 0.00 0.00 66 1014.8
20260509210005 13 353 4.8 6.4 0.00 0.00 0.00 66 1015.0
20260509205511 13 24 8.0 9.7 0.00 0.00 0.00 65 1014.9
20260509205006 13 14 8.0 9.7 0.00 0.00 0.00 65 1015.0
20260509204505 13 21 4.8 6.4 0.00 0.00 0.00 65 1014.7
20260509204005 13 2 3.2 6.4 0.00 0.00 0.00 65 1014.8
20260509203505 14 21 8.0 8.0 0.00 0.00 0.00 64 1014.7
20260509203010 14 11 8.0 9.7 0.00 0.00 0.00 64 1014.8
20260509202505 14 1 9.7 12.9 0.00 0.00 0.00 63 1015.0
20260509202006 14 20 9.7 12.9 0.00 0.00 0.00 63 1015.0
20260509201506 14 31 8.0 8.0 0.00 0.00 0.00 63 1014.9
20260509201011 15 7 4.8 4.8 0.00 0.00 0.00 63 1015.0
20260509200506 15 6 6.4 8.0 0.00 0.00 0.00 63 1014.8
20260509200006 15 33 9.7 12.9 0.00 0.00 0.00 62 1014.9
20260509195505 15 15 8.0 9.7 0.00 0.00 0.00 62 1014.8
20260509195005 15 6 8.0 9.7 0.00 0.00 0.00 61 1014.8
20260509194506 15 5 6.4 8.0 0.00 0.00 0.00 61 1014.7
20260509194006 15 4 12.9 16.1 0.00 0.00 0.00 61 1014.5
20260509193505 15 17 8.0 9.7 0.00 0.00 0.00 61 1014.5
20260509193005 15 18 12.9 14.5 0.00 0.00 0.00 60 1014.5
20260509192506 16 18 8.0 9.7 0.00 0.00 0.00 61 1014.5
20260509192005 16 5 8.0 8.0 0.00 0.00 0.00 61 1014.4
20260509191506 16 22 14.5 16.1 0.00 0.00 0.00 60 1014.4
20260509191005 16 355 11.3 12.9 0.00 0.00 0.00 60 1014.5
20260509190510 16 358 6.4 9.7 0.00 0.00 0.00 60 1014.4
20260509190006 16 302 9.7 14.5 0.00 0.00 0.00 60 1014.3
20260509185505 17 9 6.4 9.7 0.00 0.00 0.00 59 1014.3
20260509185005 17 16 9.7 12.9 0.00 0.00 0.00 58 1014.5
20260509184505 17 31 9.7 9.7 0.00 0.00 0.00 57 1014.5
20260509184005 17 338 17.7 20.9 0.00 0.00 0.00 57 1014.5
20260509183505 17 34 11.3 14.5 0.00 0.00 0.00 56 1014.6
20260509183006 17 18 11.3 16.1 0.00 0.00 0.00 55 1014.4
20260509182511 17 353 16.1 19.3 0.00 0.00 0.00 55 1014.2
20260509182005 17 22 9.7 14.5 0.00 0.00 0.00 54 1014.4
20260509181506 18 33 12.9 16.1 0.00 0.00 0.00 54 1014.3
20260509181006 18 13 14.5 17.7 0.00 0.00 0.00 52 1014.3
20260509180505 18 53 14.5 19.3 0.00 0.00 0.00 51 1014.2
20260509180010 18 347 9.7 9.7 0.00 0.00 0.00 51 1014.2
20260509175506 18 340 14.5 19.3 0.00 0.00 0.00 50 1014.2
20260509175006 18 60 16.1 17.7 0.00 0.00 0.00 49 1014.3
20260509174505 19 47 9.7 9.7 0.00 0.00 0.00 49 1014.2
20260509174005 19 8 9.7 12.9 0.00 0.00 0.00 49 1014.1
20260509173505 19 31 9.7 12.9 0.00 0.00 0.00 48 1014.0
20260509173006 19 18 11.3 14.5 0.00 0.00 0.00 48 1014.2
20260509172506 20 358 6.4 8.0 0.00 0.00 0.00 48 1014.0
20260509172005 20 56 8.0 9.7 0.00 0.00 0.00 48 1013.9
20260509171505 20 14 12.9 17.7 0.00 0.00 0.00 48 1013.8
20260509171005 20 322 9.7 9.7 0.00 0.00 0.00 48 1014.1
20260509170505 20 353 11.3 12.9 0.00 0.00 0.00 48 1014.0
20260509170005 20 356 8.0 9.7 0.00 0.00 0.00 48 1013.8
20260509165505 20 342 9.7 12.9 0.00 0.00 0.00 48 1013.7
20260509165010 20 10 11.3 14.5 0.00 0.00 0.00 48 1013.5
20260509164505 20 335 11.3 16.1 0.00 0.00 0.00 48 1014.0
20260509164005 20 17 11.3 16.1 0.00 0.00 0.00 46 1014.1
20260509163505 20 13 8.0 9.7 0.00 0.00 0.00 46 1014.0
20260509163005 20 29 6.4 9.7 0.00 0.00 0.00 45 1014.0
20260509162511 20 347 8.0 9.7 0.00 0.00 0.00 44 1013.9
20260509162006 20 13 8.0 9.7 0.00 0.00 0.00 44 1014.0
20260509161510 20 33 9.7 12.9 0.00 0.00 0.00 44 1014.1
20260509161006 20 1 12.9 16.1 0.00 0.00 0.00 44 1014.0
20260509160505 20 345 6.4 6.4 0.00 0.00 0.00 45 1014.1
20260509160005 20 20 4.8 4.8 0.00 0.00 0.00 44 1014.1
20260509155510 20 335 3.2 4.8 0.00 0.00 0.00 44 1014.1
20260509155005 20 339 4.8 6.4 0.00 0.00 0.00 44 1014.1
20260509154510 21 0 3.2 4.8 0.00 0.00 0.00 44 1014.1
20260509154006 21 19 1.6 3.2 0.00 0.00 0.00 41 1014.1
20260509153510 21 15 0.0 1.6 0.00 0.00 0.00 42 1014.3
20260509153005 20 75 3.2 6.4 0.00 0.00 0.00 42 1014.1
20260509152505 21 14 0.0 1.6 0.00 0.00 0.00 41 1014.2
20260509152005 22 81 4.8 6.4 0.00 0.00 0.00 41 1014.0
20260509151505 22 65 4.8 8.0 0.00 0.00 0.00 41 1014.2
20260509151006 22 59 4.8 6.4 0.00 0.00 0.00 40 1014.0
20260509150505 22 34 3.2 3.2 0.00 0.00 0.00 40 1014.1
20260509150005 21 359 0.0 1.6 0.00 0.00 0.00 39 1014.0
20260509145505 21 5 0.0 0.0 0.00 0.00 0.00 41 1014.4
20260509145006 21 51 1.6 3.2 0.00 0.00 0.00 42 1014.3
20260509144505 20 34 4.8 6.4 0.00 0.00 0.00 43 1014.4
20260509144005 20 49 3.2 4.8 0.00 0.00 0.00 43 1014.4
20260509143505 21 21 8.0 9.7 0.00 0.00 0.00 43 1014.4
20260509143005 21 11 6.4 8.0 0.00 0.00 0.00 42 1014.5
20260509142506 21 36 3.2 6.4 0.00 0.00 0.00 43 1014.6
20260509142005 20 27 1.6 3.2 0.00 0.00 0.00 44 1014.4
20260509141506 21 0 4.8 6.4 0.00 0.00 0.00 43 1014.5
20260509141005 21 356 0.0 1.6 0.00 0.00 0.00 41 1014.5
20260509140506 22 27 6.4 8.0 0.00 0.00 0.00 40 1014.8
20260509140006 22 8 3.2 4.8 0.00 0.00 0.00 40 1014.8
20260509135510 21 9 0.0 1.6 0.00 0.00 0.00 41 1014.5
20260509135005 21 65 3.2 3.2 0.00 0.00 0.00 41 1014.6
20260509134506 22 222 3.2 4.8 0.00 0.00 0.00 39 1014.8
20260509134006 22 28 0.0 0.0 0.00 0.00 0.00 41 1014.6
20260509133506 21 29 1.6 4.8 0.00 0.00 0.00 41 1014.8
20260509133005 21 21 0.0 1.6 0.00 0.00 0.00 41 1014.7
20260509132505 21 34 4.8 6.4 0.00 0.00 0.00 41 1015.0
20260509132005 21 49 3.2 4.8 0.00 0.00 0.00 42 1014.7
20260509131506 21 57 1.6 3.2 0.00 0.00 0.00 41 1014.9
20260509131005 21 349 0.0 1.6 0.00 0.00 0.00 41 1015.0
20260509130506 21 25 6.4 8.0 0.00 0.00 0.00 42 1014.7
20260509130010 21 74 6.4 8.0 0.00 0.00 0.00 43 1015.1
20260509125505 21 50 6.4 9.7 0.00 0.00 0.00 43 1015.0
20260509125005 21 238 6.4 9.7 0.00 0.00 0.00 42 1015.1
20260509124505 20 66 6.4 8.0 0.00 0.00 0.00 45 1015.3
20260509124006 21 30 6.4 9.7 0.00 0.00 0.00 45 1015.3
20260509123506 20 10 6.4 9.7 0.00 0.00 0.00 44 1015.3
20260509123006 20 15 4.8 6.4 0.00 0.00 0.00 44 1015.3
20260509122506 21 65 4.8 6.4 0.00 0.00 0.00 43 1015.3
20260509122005 20 22 4.8 8.0 0.00 0.00 0.00 44 1015.3
20260509121505 20 50 3.2 3.2 0.00 0.00 0.00 44 1015.4
20260509121005 21 14 6.4 9.7 0.00 0.00 0.00 46 1015.4
20260509120505 20 11 6.4 8.0 0.00 0.00 0.00 46 1015.5
20260509120005 21 113 4.8 8.0 0.00 0.00 0.00 45 1015.8
20260509115505 20 10 3.2 4.8 0.00 0.00 0.00 46 1015.8
20260509115005 20 33 8.0 9.7 0.00 0.00 0.00 46 1015.9
20260509114510 20 347 4.8 6.4 0.00 0.00 0.00 48 1015.9
20260509114005 20 1 0.0 1.6 0.00 0.00 0.00 47 1016.1
20260509113505 20 50 4.8 6.4 0.00 0.00 0.00 46 1016.2
20260509113005 20 24 6.4 8.0 0.00 0.00 0.00 46 1016.0
20260509112505 20 2 11.3 12.9 0.00 0.00 0.00 48 1016.1
20260509112005 20 9 6.4 6.4 0.00 0.00 0.00 48 1015.8
20260509111510 19 62 1.6 4.8 0.00 0.00 0.00 48 1016.2
20260509111005 20 3 4.8 8.0 0.00 0.00 0.00 48 1016.2
20260509110505 20 54 4.8 6.4 0.00 0.00 0.00 46 1016.0
20260509110005 20 2 4.8 4.8 0.00 0.00 0.00 49 1016.2
20260509105506 18 51 6.4 12.9 0.00 0.00 0.00 49 1016.2
20260509105011 19 0 8.0 8.0 0.00 0.00 0.00 49 1016.3
20260509104510 19 13 4.8 6.4 0.00 0.00 0.00 49 1016.1
20260509104006 20 72 4.8 12.9 0.00 0.00 0.00 48 1016.3
20260509103511 20 19 3.2 4.8 0.00 0.00 0.00 49 1016.3
20260509103006 19 57 6.4 8.0 0.00 0.00 0.00 50 1016.4
20260509102505 20 25 3.2 3.2 0.00 0.00 0.00 49 1016.3
20260509102010 18 48 4.8 6.4 0.00 0.00 0.00 51 1016.4
20260509101510 19 356 3.2 4.8 0.00 0.00 0.00 50 1016.5
20260509101006 18 74 6.4 9.7 0.00 0.00 0.00 50 1016.5
20260509100506 18 51 3.2 4.8 0.00 0.00 0.00 53 1016.4
20260509100006 18 80 6.4 9.7 0.00 0.00 0.00 51 1016.4
20260509095505 19 69 6.4 8.0 0.00 0.00 0.00 50 1016.5
20260509095006 19 75 6.4 9.7 0.00 0.00 0.00 48 1016.4
20260509094505 18 35 6.4 8.0 0.00 0.00 0.00 51 1016.4
20260509094005 18 27 9.7 12.9 0.00 0.00 0.00 49 1016.6
20260509093505 18 50 8.0 12.9 0.00 0.00 0.00 52 1016.6
20260509093005 18 39 12.9 14.5 0.00 0.00 0.00 50 1016.8
20260509092506 18 77 8.0 12.9 0.00 0.00 0.00 50 1016.7
20260509092011 18 43 9.7 9.7 0.00 0.00 0.00 50 1016.8
20260509091505 18 32 6.4 9.7 0.00 0.00 0.00 50 1016.7
20260509091005 18 34 4.8 9.7 0.00 0.00 0.00 51 1016.6
20260509090505 18 32 3.2 4.8 0.00 0.00 0.00 52 1016.6
20260509090005 18 34 4.8 4.8 0.00 0.00 0.00 53 1016.6
20260509085505 17 44 4.8 8.0 0.00 0.00 0.00 53 1016.5
20260509085005 18 86 3.2 3.2 0.00 0.00 0.00 52 1016.8
20260509084505 18 77 1.6 3.2 0.00 0.00 0.00 50 1016.7
20260509084006 17 82 6.4 6.4 0.00 0.00 0.00 52 1016.7
20260509083506 17 60 4.8 8.0 0.00 0.00 0.00 54 1016.5
20260509083011 17 76 8.0 9.7 0.00 0.00 0.00 55 1016.7
20260509082505 17 116 3.2 6.4 0.00 0.00 0.00 55 1016.8
20260509082005 17 68 9.7 12.9 0.00 0.00 0.00 54 1016.7
20260509081511 17 60 3.2 4.8 0.00 0.00 0.00 57 1016.9
20260509081006 17 62 4.8 6.4 0.00 0.00 0.00 56 1016.7
20260509080506 17 26 1.6 1.6 0.00 0.00 0.00 58 1017.0
20260509080005 17 91 6.4 6.4 0.00 0.00 0.00 57 1016.8
20260509075505 16 41 3.2 6.4 0.00 0.00 0.00 57 1016.8
20260509075005 16 53 4.8 6.4 0.00 0.00 0.00 57 1016.9
20260509074505 16 26 1.6 3.2 0.00 0.00 0.00 57 1017.0
20260509074010 16 81 6.4 6.4 0.00 0.00 0.00 57 1016.9
20260509073510 16 61 3.2 4.8 0.00 0.00 0.00 59 1016.9
20260509073006 16 54 6.4 8.0 0.00 0.00 0.00 59 1016.8
20260509072510 16 55 4.8 6.4 0.00 0.00 0.00 60 1016.9
20260509072005 16 20 1.6 3.2 0.00 0.00 0.00 58 1016.8
20260509071505 16 101 1.6 3.2 0.00 0.00 0.00 59 1017.1
20260509071010 16 47 6.4 8.0 0.00 0.00 0.00 60 1016.8
20260509070505 15 349 1.6 3.2 0.00 0.00 0.00 61 1016.8
20260509070005 15 25 0.0 3.2 0.00 0.00 0.00 62 1016.8
20260509065505 15 39 1.6 3.2 0.00 0.00 0.00 63 1016.9
20260509065005 15 58 0.0 3.2 0.00 0.00 0.00 64 1016.6
20260509064505 15 24 3.2 4.8 0.00 0.00 0.00 64 1017.0